Location: Newark
(31.5350°N, 35.0986°E)
Time: 22:48:35
(UTC+00:00)

Vanguard 1 - Pass Details

Date: 29 September 2019
Orbit: 653 x 3830 km, 34.2° (Epoch: 17 October)

Event Time Altitude Azimuth Distance (km) Brightness Sun altitude
Rises 22:46:36 0° 261° (W) 6,998 - -55.9°
Reaches altitude 10° 22:50:45 10° 262° (W) 6,269 - -55.3°
Exits shadow 23:13:01 84° 340° (NNW) 3,840 12.6 -52.2°
Maximum altitude 23:13:18 84° 352° (N) 3,838 12.7 -52.2°
Drops below altitude 10° 23:34:53 10° 83° (E) 6,039 14.5 -48.7°
Sets 23:38:48 0° 84° (E) 6,745 14.9 -48.1°
